UAL1012 KTUL-KIAH

Flight info

Callsign UAL1012
Flight time 1h 3m
Altitude 38000
Route OKM CVE GUSHR3
Aircraft B737/M-SDE2E3FGHIRWXY/LB1

Departure

Time 2026-05-04 23:53
Airport Tulsa International Airport (KTUL)

Arrival

Time 2026-05-05 00:56
Airport George Bush Intercontinental Airport (KIAH)
Time Latitude Longitude Altitude Speed Heading
2026-05-04 23:30 36.19260 -95.88856 857 ft 0 kts 250°
2026-05-04 23:44 36.19260 -95.88855 653 ft 1 kts 250°
2026-05-04 23:44 36.19268 -95.88829 653 ft 4 kts 250°
2026-05-04 23:45 36.19278 -95.88797 655 ft 4 kts 249°
2026-05-04 23:45 36.19285 -95.88773 653 ft 4 kts 207°
2026-05-04 23:45 36.19304 -95.88776 655 ft 4 kts 144°
2026-05-04 23:45 36.19323 -95.88798 653 ft 3 kts 128°
2026-05-04 23:46 36.19325 -95.88800 653 ft 2 kts 127°
2026-05-04 23:47 36.19309 -95.88771 654 ft 9 kts 123°
2026-05-04 23:48 36.19293 -95.88703 654 ft 12 kts 76°
2026-05-04 23:48 36.19388 -95.88595 652 ft 22 kts 37°
2026-05-04 23:48 36.19505 -95.88483 653 ft 9 kts 34°
2026-05-04 23:48 36.19542 -95.88511 652 ft 13 kts 269°
2026-05-04 23:49 36.19568 -95.88625 652 ft 14 kts 314°
2026-05-04 23:49 36.19664 -95.88620 654 ft 15 kts 17°
2026-05-04 23:49 36.19776 -95.88574 656 ft 19 kts 18°
2026-05-04 23:49 36.19914 -95.88517 652 ft 23 kts 18°
2026-05-04 23:50 36.20083 -95.88446 644 ft 28 kts 19°
2026-05-04 23:50 36.20273 -95.88378 641 ft 28 kts
2026-05-04 23:50 36.20468 -95.88364 636 ft 29 kts
2026-05-04 23:50 36.20663 -95.88351 638 ft 28 kts
2026-05-04 23:51 36.20848 -95.88339 637 ft 26 kts
2026-05-04 23:51 36.21022 -95.88328 638 ft 25 kts
2026-05-04 23:51 36.21203 -95.88316 636 ft 28 kts
2026-05-04 23:51 36.21376 -95.88271 635 ft 19 kts 62°
2026-05-04 23:52 36.21372 -95.88138 636 ft 10 kts 154°
2026-05-04 23:52 36.21315 -95.88138 634 ft 23 kts 182°
2026-05-04 23:52 36.20917 -95.88164 641 ft 90 kts 183°
2026-05-04 23:52 36.20097 -95.88216 672 ft 139 kts 184°
2026-05-04 23:53 36.19094 -95.88272 1224 ft 145 kts 183°
2026-05-04 23:53 36.18059 -95.88279 1901 ft 156 kts 180°
2026-05-04 23:53 36.16914 -95.88244 2400 ft 178 kts 180°
2026-05-04 23:53 36.15569 -95.88195 2659 ft 207 kts 180°
2026-05-04 23:54 36.14025 -95.88136 2968 ft 234 kts 179°
2026-05-04 23:54 36.12401 -95.88074 3760 ft 240 kts 179°
2026-05-04 23:54 36.10711 -95.88011 4677 ft 242 kts 180°
2026-05-04 23:54 36.09016 -95.87949 5561 ft 250 kts 183°
2026-05-04 23:55 36.07220 -95.87889 6411 ft 265 kts 184°
2026-05-04 23:55 36.05355 -95.87826 7407 ft 271 kts 184°
2026-05-04 23:55 36.01487 -95.87694 9341 ft 287 kts 184°
2026-05-04 23:56 35.99473 -95.87625 10285 ft 292 kts 183°
2026-05-04 23:56 35.97425 -95.87554 11272 ft 296 kts 184°
2026-05-04 23:56 35.95356 -95.87483 12248 ft 300 kts 183°
2026-05-04 23:56 35.93256 -95.87411 13213 ft 304 kts 183°
2026-05-04 23:57 35.91096 -95.87340 13878 ft 320 kts 184°
2026-05-04 23:57 35.88774 -95.87269 14066 ft 348 kts 183°
2026-05-04 23:57 35.86257 -95.87190 14254 ft 374 kts 183°
2026-05-04 23:57 35.83589 -95.87099 14733 ft 389 kts 182°
2026-05-04 23:58 35.80861 -95.87000 15462 ft 395 kts 183°
2026-05-04 23:58 35.78099 -95.86900 16268 ft 399 kts 183°
2026-05-04 23:58 35.75302 -95.86803 17030 ft 404 kts 184°
2026-05-04 23:58 35.72475 -95.86709 17759 ft 409 kts 184°
2026-05-04 23:59 35.69624 -95.86778 18408 ft 410 kts 191°
2026-05-04 23:59 35.66834 -95.87421 19010 ft 407 kts 202°
2026-05-04 23:59 35.64149 -95.88432 19640 ft 411 kts 204°
2026-05-04 23:59 35.61414 -95.89509 20265 ft 415 kts 204°
2026-05-05 00:00 35.58649 -95.90607 20818 ft 421 kts 204°
2026-05-05 00:00 35.57707 -95.90981 20999 ft 423 kts 204°
2026-05-05 00:00 35.52997 -95.92827 21943 ft 431 kts 205°
2026-05-05 00:00 35.50117 -95.93942 22493 ft 436 kts 205°
2026-05-05 00:01 35.47205 -95.95060 23047 ft 440 kts 205°
2026-05-05 00:01 35.44264 -95.96184 23537 ft 445 kts 205°
2026-05-05 00:01 35.41302 -95.97313 24013 ft 448 kts 205°
2026-05-05 00:01 35.38318 -95.98447 24523 ft 450 kts 205°
2026-05-05 00:02 35.35318 -95.99585 25007 ft 452 kts 206°
2026-05-05 00:02 35.32307 -96.00729 25430 ft 454 kts 206°
2026-05-05 00:02 35.29270 -96.01882 25863 ft 457 kts 206°
2026-05-05 00:02 35.26224 -96.03038 26295 ft 460 kts 206°
2026-05-05 00:03 35.23160 -96.04200 26729 ft 462 kts 207°
2026-05-05 00:03 35.20085 -96.05365 27138 ft 464 kts 207°
2026-05-05 00:03 35.16991 -96.06536 27533 ft 466 kts 207°
2026-05-05 00:03 35.13881 -96.07713 27919 ft 469 kts 207°
2026-05-05 00:04 35.10762 -96.08892 28274 ft 471 kts 207°
2026-05-05 00:04 35.07630 -96.10075 28621 ft 473 kts 208°
2026-05-05 00:04 35.04470 -96.11268 28926 ft 476 kts 208°
2026-05-05 00:04 35.01305 -96.12462 29285 ft 477 kts 208°
2026-05-05 00:05 34.98134 -96.13653 29767 ft 476 kts 208°
2026-05-05 00:05 34.95022 -96.14820 30208 ft 474 kts 209°
2026-05-05 00:05 34.91874 -96.16001 30611 ft 473 kts 209°
2026-05-05 00:05 34.88723 -96.17185 30972 ft 474 kts 209°
2026-05-05 00:06 34.85562 -96.18373 31339 ft 475 kts 210°
2026-05-05 00:06 34.82409 -96.19558 31696 ft 475 kts 210°
2026-05-05 00:06 34.79246 -96.20746 32018 ft 476 kts 210°
2026-05-05 00:06 34.76075 -96.21935 32381 ft 477 kts 210°
2026-05-05 00:07 34.72907 -96.23120 32808 ft 476 kts 211°
2026-05-05 00:07 34.69749 -96.24298 33244 ft 474 kts 211°
2026-05-05 00:07 34.66601 -96.25471 33678 ft 472 kts 211°
2026-05-05 00:07 34.63458 -96.26644 34005 ft 472 kts 211°
2026-05-05 00:08 34.60323 -96.27814 34336 ft 471 kts 211°
2026-05-05 00:08 34.57194 -96.28980 34674 ft 469 kts 211°
2026-05-05 00:08 34.54082 -96.30138 35022 ft 468 kts 211°
2026-05-05 00:08 34.50973 -96.31295 35349 ft 467 kts 212°
2026-05-05 00:09 34.47875 -96.32448 35681 ft 465 kts 212°
2026-05-05 00:09 34.44785 -96.33597 36013 ft 464 kts 212°
2026-05-05 00:09 34.41707 -96.34739 36376 ft 461 kts 212°
2026-05-05 00:09 34.38638 -96.35877 36716 ft 460 kts 212°
2026-05-05 00:10 34.35584 -96.37009 37031 ft 458 kts 212°
2026-05-05 00:10 34.32540 -96.38138 37327 ft 457 kts 212°
2026-05-05 00:10 34.29504 -96.39264 37578 ft 456 kts 212°
2026-05-05 00:10 34.26469 -96.40387 37780 ft 457 kts 212°
2026-05-05 00:11 34.23420 -96.41521 37767 ft 459 kts 212°
2026-05-05 00:11 34.17372 -96.43755 37782 ft 455 kts 212°
2026-05-05 00:12 34.11337 -96.45973 37788 ft 451 kts 212°
2026-05-05 00:12 34.05350 -96.48176 37802 ft 448 kts 212°
2026-05-05 00:13 33.99399 -96.50365 37801 ft 446 kts 212°
2026-05-05 00:13 33.93468 -96.52546 37802 ft 445 kts 212°
2026-05-05 00:14 33.87529 -96.54729 37797 ft 447 kts 212°
2026-05-05 00:14 33.81563 -96.56917 37769 ft 449 kts 212°
2026-05-05 00:15 33.75563 -96.59112 37756 ft 452 kts 212°
2026-05-05 00:15 33.69566 -96.61300 37792 ft 454 kts 212°
2026-05-05 00:16 33.63502 -96.63509 37788 ft 456 kts 212°
2026-05-05 00:16 33.57429 -96.65718 37784 ft 456 kts 212°
2026-05-05 00:17 33.51353 -96.67923 37785 ft 456 kts 212°
2026-05-05 00:17 33.45283 -96.70125 37778 ft 455 kts 211°
2026-05-05 00:18 33.39210 -96.72325 37790 ft 455 kts 211°
2026-05-05 00:18 33.33138 -96.74522 37790 ft 455 kts 211°
2026-05-05 00:19 33.27078 -96.76711 37800 ft 455 kts 211°
2026-05-05 00:19 33.21019 -96.78898 37800 ft 455 kts 211°
2026-05-05 00:20 33.15002 -96.81066 37803 ft 455 kts 211°
2026-05-05 00:20 33.08947 -96.83244 37795 ft 455 kts 211°
2026-05-05 00:21 33.02893 -96.85419 37805 ft 454 kts 211°
2026-05-05 00:21 32.96845 -96.87589 37768 ft 453 kts 211°
2026-05-05 00:22 32.90800 -96.89712 37793 ft 459 kts 206°
2026-05-05 00:22 32.87507 -96.90005 37819 ft 493 kts 187°
2026-05-05 00:22 32.84064 -96.89250 37842 ft 509 kts 179°
2026-05-05 00:23 32.77168 -96.87121 37822 ft 513 kts 176°
2026-05-05 00:23 32.70321 -96.85011 37804 ft 511 kts 178°
2026-05-05 00:24 32.63424 -96.83018 37810 ft 509 kts 178°
2026-05-05 00:24 32.56529 -96.81051 37808 ft 510 kts 178°
2026-05-05 00:25 32.49638 -96.79079 37814 ft 510 kts 178°
2026-05-05 00:25 32.42740 -96.77108 37798 ft 510 kts 178°
2026-05-05 00:26 32.35850 -96.75142 37830 ft 509 kts 178°
2026-05-05 00:26 32.28955 -96.73179 37825 ft 510 kts 178°
2026-05-05 00:27 32.22057 -96.71218 37832 ft 510 kts 178°
2026-05-05 00:27 32.15153 -96.69260 37806 ft 510 kts 178°
2026-05-05 00:28 32.08250 -96.67302 37831 ft 510 kts 178°
2026-05-05 00:28 32.04818 -96.66326 37702 ft 503 kts 178°
2026-05-05 00:28 32.01433 -96.65361 37158 ft 499 kts 178°
2026-05-05 00:28 31.99198 -96.64727 36906 ft 499 kts 178°
2026-05-05 00:29 31.95797 -96.63774 36562 ft 507 kts 178°
2026-05-05 00:29 31.92324 -96.62806 36202 ft 516 kts 177°
2026-05-05 00:29 31.88809 -96.61823 35805 ft 520 kts 177°
2026-05-05 00:29 31.85294 -96.60829 35440 ft 519 kts 176°
2026-05-05 00:30 31.81787 -96.59833 35080 ft 517 kts 176°
2026-05-05 00:30 31.78290 -96.58841 34726 ft 516 kts 176°
2026-05-05 00:30 31.74802 -96.57857 34381 ft 515 kts 176°
2026-05-05 00:30 31.71317 -96.56877 34040 ft 516 kts 176°
2026-05-05 00:31 31.67817 -96.55895 33696 ft 516 kts 176°
2026-05-05 00:31 31.64321 -96.54915 33313 ft 518 kts 176°
2026-05-05 00:31 31.60816 -96.53933 32904 ft 519 kts 176°
2026-05-05 00:31 31.57294 -96.52946 32532 ft 520 kts 176°
2026-05-05 00:32 31.53772 -96.51958 32162 ft 521 kts 175°
2026-05-05 00:32 31.50280 -96.50641 31758 ft 538 kts 162°
2026-05-05 00:32 31.46959 -96.48651 31430 ft 533 kts 159°
2026-05-05 00:32 31.43725 -96.46563 31063 ft 526 kts 158°
2026-05-05 00:33 31.40534 -96.44493 30713 ft 524 kts 158°
2026-05-05 00:33 31.37327 -96.42462 30369 ft 524 kts 159°
2026-05-05 00:33 31.34105 -96.40473 30004 ft 523 kts 159°
2026-05-05 00:33 31.30924 -96.38536 29623 ft 522 kts 159°
2026-05-05 00:34 31.27707 -96.36581 29223 ft 520 kts 159°
2026-05-05 00:34 31.24511 -96.34635 28889 ft 514 kts 159°
2026-05-05 00:34 31.21367 -96.32716 28886 ft 507 kts 159°
2026-05-05 00:35 31.15096 -96.28901 28887 ft 511 kts 159°
2026-05-05 00:35 31.08781 -96.25066 28847 ft 510 kts 159°
2026-05-05 00:35 31.05636 -96.23155 28633 ft 508 kts 159°
2026-05-05 00:36 31.02514 -96.21258 28466 ft 504 kts 159°
2026-05-05 00:36 30.99409 -96.19369 28170 ft 502 kts 159°
2026-05-05 00:36 30.96348 -96.17431 27505 ft 500 kts 157°
2026-05-05 00:36 30.93320 -96.15453 26920 ft 496 kts 157°
2026-05-05 00:37 30.90331 -96.13495 26334 ft 491 kts 157°
2026-05-05 00:37 30.87351 -96.11564 25743 ft 487 kts 157°
2026-05-05 00:37 30.84401 -96.09667 25134 ft 483 kts 157°
2026-05-05 00:37 30.81466 -96.07784 24517 ft 478 kts 157°
2026-05-05 00:38 30.78575 -96.05928 23927 ft 469 kts 156°
2026-05-05 00:38 30.75779 -96.04133 23323 ft 461 kts 156°
2026-05-05 00:38 30.72993 -96.02345 22663 ft 454 kts 156°
2026-05-05 00:38 30.70237 -96.00580 22066 ft 450 kts 156°
2026-05-05 00:39 30.67509 -95.98834 21481 ft 446 kts 156°
2026-05-05 00:39 30.64801 -95.97101 20903 ft 442 kts 156°
2026-05-05 00:39 30.62118 -95.95386 20330 ft 439 kts 156°
2026-05-05 00:39 30.59453 -95.93682 19699 ft 436 kts 156°
2026-05-05 00:40 30.56806 -95.91991 19116 ft 433 kts 155°
2026-05-05 00:40 30.54182 -95.90315 18590 ft 428 kts 155°
2026-05-05 00:40 30.51582 -95.88656 17999 ft 426 kts 155°
2026-05-05 00:40 30.49007 -95.86979 17305 ft 424 kts 151°
2026-05-05 00:41 30.46662 -95.84915 16709 ft 420 kts 142°
2026-05-05 00:41 30.44500 -95.82700 16136 ft 410 kts 140°
2026-05-05 00:41 30.42407 -95.80518 15576 ft 401 kts 141°
2026-05-05 00:41 30.40335 -95.78405 15201 ft 392 kts 141°
2026-05-05 00:42 30.38300 -95.76381 15032 ft 378 kts 142°
2026-05-05 00:42 30.36332 -95.74443 14864 ft 366 kts 142°
2026-05-05 00:42 30.34410 -95.72569 14635 ft 357 kts 143°
2026-05-05 00:42 30.32518 -95.70744 14255 ft 353 kts 143°
2026-05-05 00:43 30.30627 -95.68926 13643 ft 353 kts 142°
2026-05-05 00:43 30.28757 -95.67126 13040 ft 351 kts 142°
2026-05-05 00:43 30.26916 -95.65348 12800 ft 333 kts 142°
2026-05-05 00:43 30.25151 -95.63645 12231 ft 328 kts 142°
2026-05-05 00:44 30.23427 -95.61985 11698 ft 326 kts 142°
2026-05-05 00:44 30.21689 -95.60313 11153 ft 323 kts 142°
2026-05-05 00:44 30.19974 -95.58664 10617 ft 318 kts 142°
2026-05-05 00:44 30.18278 -95.57035 10315 ft 314 kts 142°
2026-05-05 00:45 30.16612 -95.55434 10047 ft 309 kts 142°
2026-05-05 00:45 30.14967 -95.53855 9801 ft 303 kts 142°
2026-05-05 00:45 30.13359 -95.52312 9530 ft 298 kts 142°
2026-05-05 00:45 30.11775 -95.50793 9285 ft 294 kts 143°
2026-05-05 00:46 30.10250 -95.49212 9018 ft 297 kts 130°
2026-05-05 00:46 30.09346 -95.47082 8804 ft 298 kts 103°
2026-05-05 00:46 30.09182 -95.44712 8589 ft 296 kts 90°
2026-05-05 00:46 30.09192 -95.42337 8342 ft 296 kts 89°
2026-05-05 00:47 30.09218 -95.39957 8107 ft 296 kts 89°
2026-05-05 00:47 30.09236 -95.37581 7866 ft 296 kts 89°
2026-05-05 00:47 30.09244 -95.35217 7653 ft 290 kts 90°
2026-05-05 00:47 30.09244 -95.32964 7530 ft 273 kts 90°
2026-05-05 00:48 30.09241 -95.31196 7414 ft 260 kts 90°
2026-05-05 00:48 30.09238 -95.29107 7089 ft 255 kts 89°
2026-05-05 00:48 30.09262 -95.27072 6725 ft 253 kts 89°
2026-05-05 00:48 30.09288 -95.25033 6314 ft 253 kts 90°
2026-05-05 00:49 30.09306 -95.23034 5936 ft 252 kts 91°
2026-05-05 00:49 30.09291 -95.21022 5568 ft 249 kts 93°
2026-05-05 00:49 30.09246 -95.19040 5199 ft 246 kts 94°
2026-05-05 00:49 30.09163 -95.17080 4823 ft 243 kts 95°
2026-05-05 00:50 30.09077 -95.15127 4463 ft 243 kts 96°
2026-05-05 00:50 30.08790 -95.13250 4242 ft 233 kts 121°
2026-05-05 00:50 30.07845 -95.11802 4000 ft 223 kts 142°
2026-05-05 00:50 30.06629 -95.10774 3860 ft 211 kts 154°
2026-05-05 00:51 30.05287 -95.10066 3541 ft 210 kts 169°
2026-05-05 00:51 30.03876 -95.09879 3343 ft 203 kts 185°
2026-05-05 00:51 30.02499 -95.10178 3097 ft 201 kts 199°
2026-05-05 00:51 30.01232 -95.10883 3063 ft 204 kts 211°
2026-05-05 00:52 30.00156 -95.11977 3033 ft 210 kts 232°
2026-05-05 00:52 29.99601 -95.13536 2969 ft 212 kts 253°
2026-05-05 00:52 29.99371 -95.15178 2910 ft 204 kts 262°
2026-05-05 00:52 29.99350 -95.16799 2703 ft 202 kts 264°
2026-05-05 00:53 29.99351 -95.18398 2464 ft 197 kts 264°
2026-05-05 00:53 29.99351 -95.19948 2194 ft 187 kts 263°
2026-05-05 00:53 29.99350 -95.21409 1934 ft 175 kts 263°
2026-05-05 00:53 29.99348 -95.22768 1704 ft 163 kts 263°
2026-05-05 00:54 29.99350 -95.24029 1491 ft 152 kts 262°
2026-05-05 00:54 29.99351 -95.25172 1361 ft 137 kts 261°
2026-05-05 00:54 29.99346 -95.26286 1158 ft 136 kts 262°
2026-05-05 00:54 29.99344 -95.27355 988 ft 135 kts 263°
2026-05-05 00:55 29.99341 -95.28466 828 ft 142 kts 265°
2026-05-05 00:55 29.99345 -95.29602 628 ft 139 kts 263°
2026-05-05 00:55 29.99342 -95.30720 420 ft 142 kts 262°
2026-05-05 00:55 29.99346 -95.31870 266 ft 146 kts 263°
2026-05-05 00:56 29.99344 -95.33040 111 ft 140 kts 263°
2026-05-05 00:56 29.99339 -95.34002 104 ft 92 kts 271°
2026-05-05 00:56 29.99338 -95.34526 105 ft 45 kts 269°
2026-05-05 00:56 29.99263 -95.34822 106 ft 25 kts 240°
2026-05-05 00:57 29.99184 -95.34862 106 ft 14 kts 116°
2026-05-05 00:57 29.99177 -95.34717 106 ft 22 kts 90°
2026-05-05 00:57 29.99177 -95.34537 106 ft 22 kts 90°
2026-05-05 00:57 29.99177 -95.34361 106 ft 22 kts 90°
2026-05-05 00:58 29.99178 -95.34191 106 ft 21 kts 90°
2026-05-05 00:58 29.99176 -95.34025 106 ft 20 kts 98°
2026-05-05 00:58 29.99093 -95.33983 106 ft 12 kts 175°
2026-05-05 00:58 29.99012 -95.33982 106 ft 11 kts 180°
2026-05-05 00:59 29.98932 -95.33982 106 ft 11 kts 180°
2026-05-05 00:59 29.98860 -95.33970 106 ft 10 kts 182°
2026-05-05 00:59 29.98809 -95.33975 106 ft 1 kts 184°
2026-05-05 00:59 29.98805 -95.33976 106 ft 0 kts 185°